Location: Lane
(33.5226°N, 79.8788°W)
Time: 20:55:12
(UTC+00:00)

Courier 1B Rocket - Pass Details

Date: 04 October 2022
Orbit: 920 x 1202 km, 28.2° (Epoch: 05 December)

Event Time Altitude Azimuth Distance (km) Brightness Sun altitude
Rises 00:38:09 0° 251° (WSW) 3,771 9.1 -21.0°
Reaches altitude 10° 00:41:00 10° 246° (WSW) 2,776 8.2 -21.6°
Maximum altitude 00:47:25 50° 173° (S) 1,200 5.3 -22.9°
Enters shadow 00:48:53 43° 134° (SE) 1,317 5.3 -23.2°
